Torna al catalogo

STARLINK-5011

AttivoComunicazioniVLEO
NORAD 53925·PAYLOAD·🇺🇸 United States

Lanciato Sep 24, 2022 da Cape Canaveral Space Force Station

Loading…

Prossimi Passaggi (prossime 24 ore)

TLE

AggiornatoSource: CelesTrak SupGP

Epoca: Sep 14, 2026, 22:01 UTC

1 53925C 22119AR  26257.91784722 -.00024903  00000+0 -15618-2 0  2570
2 53925  53.1591 183.6122 0001415  92.6466  52.1678 15.08844872    14

Traccia STARLINK-5011 in tempo reale con AllMySat

Download on the App Store